Regional Weather Roundup
Issued by NWS

Home | Current Version | Previous Version | Text Only | Print | Product List | Glossary On
Versions: 1 2 3 4 5 6 7 8 9 10 11 12 13 14 15 16 17 18 19 20 21 22 23 24 25 26 27 28 29 30 31 32 33 34 35 36 37 38 39 40 41 42 43 44 45 46 47 48 49 50
000
ASUS45 KABQ 281810
RWRNM
WEATHER ROUNDUP FOR NEW MEXICO
NATIONAL WEATHER SERVICE ALBUQUERQUE NM
1100 AM MST SAT FEB 28 2015

NOTE: "FAIR" MEANS FEW OR NO CLOUDS BELOW 12,000 FEET AGL WITH NO
       SIGNIFICANT WEATHER OR OBSTRUCTIONS TO VISION.

      THIS PRODUCT IS RELEASED AS TWO VERSIONS.  ONE VERSION NEAR
      THE TOP OF THE HOUR CONTAINING PRELIMINARY DATA FROM ALBUQUERQUE
      AND OTHER STATIONS.  A FINAL VERSION WITH ADDITIONAL DATA IS
      ISSUED ABOUT 10 MINUTES AFTER THE HOUR.

NMZ501-503-504-510>518-281900-
NORTHWEST PLATEAU/NORTHCENTRAL MOUNTAINS

CITY           SKY/WX    TMP DP  RH WIND       PRES   REMARKS
FARMINGTON     HVY SNOW  30  29  96 E10       29.82R VSB 1/4 WCI  21
6HR MIN TEMP:  29; 6HR MAX TEMP:  31; 6HR PCP:  0.22;

LOS ALAMOS     LGT SNOW  21  21 100 S5        29.90S WCI  15
SANTA FE       CLOUDY    24  17  74 S9        29.93R WCI  14
6HR MIN TEMP:  16; 6HR MAX TEMP:  24; 6HR PCP:  0.01;

TAOS           CLOUDY    19  16  86 CALM      29.89S VSB 3/4
ANGEL FIRE     SNOW      26  24  90 CALM      29.86R VSB 1/2

$$
NMZ402-403-502-505>509-281900-
WESTCENTRAL MOUNTAINS/SOUTHWEST MOUNTAINS

CITY           SKY/WX    TMP DP  RH WIND       PRES   REMARKS
GALLUP         CLOUDY    39  34  82 SW18G25   29.80R WCI  30
6HR MIN TEMP:  31; 6HR MAX TEMP:  39; 6HR PCP:  0.16;

GRANTS         CLOUDY    30  25  82 SE13      29.88S WCI  20
SILVER CITY    SUNNY     55  32  41 SW21G28   29.95F

$$
NMZ407-409-411-412-281900-
SOUTHERN DESERTS

CITY           SKY/WX    TMP DP  RH WIND       PRES   REMARKS
LORDSBURG      MOCLDY    59  32  36 S3        29.91F
DEMING         SUNNY     46  26  45 MISG      29.97F
6HR MIN TEMP:  24; 6HR MAX TEMP:  46;

LAS CRUCES     SUNNY     46  28  49 SE14      29.99F
HOLLOMAN AFB   MOSUNNY   39  24  55 SE6       30.02F WCI  35
ALAMOGORDO     MOSUNNY   39  25  56 CALM      30.03F
T OR C         SUNNY     46  28  49 S15       29.93F
6HR MIN TEMP:  30; 6HR MAX TEMP:  46;


$$
NMZ519>523-281900-
CENTRAL VALLEYS/CENTRAL HIGHLANDS

CITY           SKY/WX    TMP DP  RH WIND       PRES   REMARKS
ALBUQUERQUE    PTSUNNY   27  20  75 N12       29.96R WCI  17
6HR MIN TEMP:  19; 6HR MAX TEMP:  27; 6HR PCP:  0.08;

DOUBLE EAGLE   CLOUDY    25  19  80 NE8       29.94  WCI  16
MORIARTY ARPT  CLOUDY    25  23  90 S9        29.95S WCI  16
6HR MIN TEMP:  14; 6HR MAX TEMP:  25;

CLINES CORNERS NOT AVBL
BELEN          CLOUDY    30  25  82 CALM      29.95S
6HR MIN TEMP:  22; 6HR MAX TEMP:  30;

SOCORRO          N/A     41  31  66 S15G22    29.94F
6HR MIN TEMP:  24; 6HR MAX TEMP:  41;


$$
NMZ524>526-539-540-281900-
SOUTHCENTRAL MOUNTAINS

CITY           SKY/WX    TMP DP  RH WIND       PRES   REMARKS
RUIDOSO        LGT RAIN  28  28 100 N5        29.96R WCI  23

$$
NMZ527>531-281900-
NORTHEAST HIGHLANDS/NORTHEAST PLAINS

CITY           SKY/WX    TMP DP  RH WIND       PRES   REMARKS
LAS VEGAS      PTSUNNY   17  13  84 S22       29.89S WCI   0
6HR MIN TEMP:   8; 6HR MAX TEMP:  17; 6HR PCP: TRACE;

RATON          MOSUNNY   16   8  71 CALM      29.88F
6HR MIN TEMP:   7; 6HR MAX TEMP:  16;

CLAYTON        CLOUDY    19  13  77 SW15      29.99R WCI   5
6HR MIN TEMP:  11; 6HR MAX TEMP:  20; 6HR PCP:  0.03;


$$
NMZ532>537-281900-
EASTCENTRAL PLAINS

CITY           SKY/WX    TMP DP  RH WIND       PRES   REMARKS
TUCUMCARI      CLOUDY    23  17  78 SW17      30.07F WCI   9
6HR MIN TEMP:  15; 6HR MAX TEMP:  23;

CANNON AFB     CLOUDY    18  16  92 S10       30.09F WCI   6
6HR MIN TEMP:  12; 6HR MAX TEMP:  18; 6HR PCP: TRACE;

CLOVIS AIRPORT CLOUDY    18  16  93 S13       30.10S WCI   4

$$
NMZ028-029-538-281900-
SOUTHEAST PLAINS

CITY           SKY/WX    TMP DP  RH WIND       PRES   REMARKS
ROSWELL        CLOUDY    23  20  88 S8        30.13F WCI  14
6HR MIN TEMP:  20; 6HR MAX TEMP:  23;

ARTESIA        CLOUDY    25  25 100 SE15      30.15S WCI  12
CARLSBAD       CLOUDY    26  23  88 SE12      30.15F WCI  16
6HR MIN TEMP:  22; 6HR MAX TEMP:  27;

HOBBS          CLOUDY    23  23 100 CALM      30.16F FOG


$$



USA.gov is the U.S. government's official web portal to all federal, state and local government web resources and services.